Location: ?????????
(53.2086°N, 54.0693°E)
Time: 01:57:43
(UTC+00:00)

NOSS 2-2 (E) - Pass Details

Date: 08 December 2019
Orbit: 482 x 1725 km, 63.3° (Epoch: 20 January)

Event Time Altitude Azimuth Distance (km) Brightness Sun altitude
Rises 12:50:58 0° 235° (SW) 2,561 9.3 -6.3°
Reaches altitude 10° 12:52:57 10° 238° (WSW) 1,725 7.7 -6.6°
Maximum altitude 12:56:41 68° 322° (NW) 615 3.6 -7.1°
Drops below altitude 10° 13:01:18 10° 46° (NE) 2,123 5.7 -7.7°
Enters shadow 13:01:38 - 46° (NE) 2,258 5.8 -7.7°
